Simultaneous Nadir Overpasses (SNOs) Predictions

Prediction of SNOs near US between AQUA and NPP Satellite Orbit:

Table of predicted SNOs near US for the next 10.0 days since TLE Epoch: 6/6/2014
Index Date (AQUA) Time (AQUA) AQUA Lat,Lon Date (NPP) Time (NPP) NPP Lat,Lon Distance(km) Time Diff (sec)
1 06/09/2014 07:46:10 20.05, -89.57 06/09/2014 07:41:42 20.02, -89.45 13.24 268
2 06/09/2014 09:18:47 42.64,-108.14 06/09/2014 09:16:44 42.67,-108.27 11.15 123
3 06/12/2014 06:30:49 46.56, -65.03 06/12/2014 06:36:58 46.96, -66.98 155.10 369
4 06/12/2014 08:08:46 49.89, -88.43 06/12/2014 08:17:04 51.79, -90.22 246.56 498
5 06/14/2014 17:28:01 50.00, -67.88 06/14/2014 17:26:20 49.78, -69.26 102.37 101
6 06/14/2014 19:06:02 46.91, -91.36 06/14/2014 19:06:54 46.55, -93.27 151.07 52
7 06/14/2014 20:42:24 37.90,-113.04 06/14/2014 20:45:47 37.45,-115.41 214.44 203




NCC Satellite Simultaneous Nadir Overpasses (SNOs) Prediction Service
